Zurück zum Katalog

BREEZE-M DEB

AktivHEO
NORAD 32034·DEBRIS·🇷🇺 Russia

Gestartet Feb 28, 2006 von Baikonur Cosmodrome

Loading…

Nächste Überflüge (nächste 24 Stunden)

TLE

AktuellSource: Space-Track

Epoche: Sep 12, 2026, 21:13 UTC

1 32034U 06006M   26255.88449836  .00000138  00000-0  22273-3 0  9995
2 32034  51.6405 108.6213 5102779  66.9001 338.1393  5.23963851372902

Verfolge BREEZE-M DEB in Echtzeit mit AllMySat

Download on the App Store